QPF
0.03 0.03 0.03 0.03 0.04 0.08 0.09 0.10 0.09 0.12 0.16 0.18 0.17 0.13 0.10 0.09 0.09 0.09 0.11 0.10 0.09 0.08 0.09 0.10 0.12 0.13 0.13 0.12 0.12 0.11 0.09 0.07 0.05 0.03 0.02 0.01 0.01 0.00 0.00 0.00 0.00 0.00 0.00
0.03 0.02 0.03 0.04 0.04 0.06 0.08 0.09 0.10 0.11 0.15 0.14 0.14 0.14 0.11 0.09 0.09 0.08 0.10 0.12 0.11 0.10 0.09 0.11 0.12 0.12 0.13 0.14 0.14 0.13 0.12 0.09 0.06 0.03 0.02 0.01 0.01 0.01 0.00 0.00 0.00 0.00 0.00
0.01 0.02 0.02 0.03 0.03 0.05 0.07 0.08 0.10 0.11 0.12 0.14 0.17 0.15 0.13 0.10 0.10 0.10 0.10 0.11 0.11 0.11 0.11 0.10 0.11 0.11 0.12 0.13 0.14 0.13 0.12 0.10 0.07 0.04 0.02 0.01 0.01 0.00 0.00 0.00 0.00 0.00 0.00
0.01 0.01 0.02 0.03 0.03 0.04 0.07 0.08 0.09 0.12 0.11 0.12 0.16 0.14 0.11 0.10 0.09 0.09 0.10 0.11 0.12 0.11 0.12 0.12 0.11 0.10 0.12 0.12 0.13 0.13 0.11 0.10 0.09 0.06 0.03 0.01 0.00 0.00 0.00 0.00 0.00 0.00 0.00
0.01 0.01 0.02 0.03 0.04 0.05 0.07 0.09 0.09 0.12 0.12 0.11 0.13 0.15 0.11 0.09 0.10 0.12 0.14 0.16 0.15 0.14 0.14 0.15 0.14 0.10 0.10 0.12 0.13 0.14 0.14 0.13 0.10 0.07 0.04 0.02 0.01 0.00 0.00 0.00 0.00 0.00 0.00
0.01 0.02 0.02 0.03 0.04 0.06 0.08 0.08 0.09 0.10 0.12 0.12 0.12 0.15 0.13 0.11 0.10 0.12 0.17 0.22 0.23 0.20 0.18 0.17 0.17 0.13 0.10 0.10 0.12 0.14 0.14 0.14 0.12 0.08 0.05 0.03 0.01 0.01 0.00 0.00 0.00 0.00 0.00
0.03 0.03 0.03 0.03 0.04 0.06 0.07 0.08 0.07 0.09 0.11 0.13 0.13 0.13 0.14 0.13 0.12 0.12 0.15 0.21 0.24 0.25 0.21 0.18 0.18 0.15 0.12 0.10 0.11 0.14 0.15 0.13 0.12 0.09 0.06 0.03 0.02 0.01 0.01 0.00 0.00 0.00 0.00
0.03 0.03 0.03 0.04 0.05 0.05 0.06 0.06 0.06 0.06 0.09 0.14 0.14 0.13 0.14 0.14 0.14 0.14 0.15 0.19 0.21 0.21 0.20 0.19 0.18 0.15 0.12 0.11 0.12 0.13 0.13 0.13 0.12 0.09 0.07 0.05 0.03 0.02 0.01 0.00 0.00 0.00 0.00
0.02 0.04 0.04 0.05 0.06 0.06 0.06 0.06 0.05 0.06 0.08 0.13 0.14 0.12 0.13 0.16 0.16 0.15 0.16 0.19 0.21 0.20 0.18 0.18 0.19 0.19 0.16 0.12 0.11 0.12 0.11 0.10 0.10 0.09 0.07 0.05 0.03 0.02 0.01 0.00 0.00 0.00 0.00
0.03 0.04 0.04 0.06 0.07 0.06 0.06 0.06 0.06 0.07 0.10 0.12 0.14 0.14 0.13 0.14 0.17 0.17 0.16 0.18 0.20 0.20 0.17 0.16 0.17 0.17 0.18 0.18 0.15 0.13 0.11 0.08 0.08 0.07 0.06 0.04 0.03 0.02 0.02 0.01 0.01 0.01 0.01
0.02 0.03 0.03 0.07 0.08 0.08 0.07 0.06 0.05 0.06 0.11 0.12 0.13 0.13 0.14 0.14 0.16 0.17 0.16 0.15 0.18 0.22 0.20 0.17 0.17 0.17 0.14 0.14 0.15 0.16 0.14 0.11 0.09 0.07 0.05 0.04 0.03 0.02 0.02 0.02 0.01 0.01 0.01
0.02 0.03 0.04 0.05 0.07 0.09 0.08 0.06 0.05 0.05 0.08 0.11 0.12 0.12 0.13 0.15 0.16 0.17 0.18 0.17 0.15 0.18 0.21 0.19 0.17 0.18 0.17 0.13 0.11 0.11 0.12 0.12 0.11 0.08 0.05 0.03 0.03 0.03 0.03 0.03 0.03 0.01 0.01
0.04 0.04 0.04 0.05 0.06 0.08 0.08 0.07 0.06 0.07 0.07 0.08 0.10 0.11 0.12 0.14 0.16 0.16 0.17 0.18 0.16 0.15 0.18 0.17 0.17 0.18 0.18 0.14 0.11 0.09 0.08 0.08 0.08 0.08 0.06 0.03 0.03 0.03 0.03 0.04 0.03 0.02 0.01
0.05 0.04 0.03 0.04 0.05 0.07 0.07 0.06 0.05 0.07 0.07 0.07 0.08 0.10 0.12 0.12 0.14 0.15 0.16 0.17 0.16 0.14 0.16 0.17 0.16 0.16 0.17 0.14 0.13 0.11 0.08 0.07 0.06 0.05 0.05 0.04 0.03 0.03 0.03 0.03 0.04 0.03 0.03
0.05 0.03 0.03 0.03 0.03 0.05 0.07 0.05 0.03 0.04 0.05 0.07 0.08 0.10 0.12 0.14 0.16 0.18 0.18 0.16 0.17 0.13 0.12 0.15 0.15 0.14 0.16 0.13 0.11 0.09 0.08 0.07 0.05 0.05 0.04 0.04 0.03 0.03 0.03 0.03 0.03 0.03 0.03
0.04 0.03 0.02 0.02 0.03 0.04 0.06 0.04 0.04 0.03 0.04 0.06 0.07 0.09 0.12 0.13 0.14 0.17 0.21 0.19 0.16 0.15 0.13 0.13 0.14 0.14 0.15 0.13 0.11 0.08 0.07 0.06 0.05 0.05 0.04 0.04 0.04 0.03 0.04 0.04 0.03 0.03 0.03
0.02 0.01 0.01 0.01 0.03 0.04 0.04 0.03 0.03 0.04 0.04 0.05 0.06 0.08 0.11 0.13 0.13 0.14 0.16 0.17 0.14 0.13 0.14 0.13 0.13 0.14 0.14 0.13 0.12 0.11 0.08 0.05 0.04 0.05 0.05 0.04 0.04 0.04 0.03 0.04 0.04 0.03 0.02
0.00 0.00 0.00 0.01 0.02 0.03 0.03 0.03 0.03 0.03 0.04 0.05 0.06 0.07 0.10 0.11 0.12 0.13 0.14 0.14 0.12 0.11 0.13 0.14 0.12 0.11 0.12 0.13 0.13 0.12 0.10 0.09 0.06 0.05 0.05 0.05 0.05 0.04 0.04 0.04 0.03 0.02 0.02
0.00 0.00 0.00 0.00 0.01 0.02 0.03 0.03 0.02 0.03 0.04 0.05 0.06 0.08 0.09 0.11 0.11 0.12 0.12 0.12 0.11 0.10 0.11 0.14 0.13 0.10 0.09 0.10 0.11 0.11 0.10 0.11 0.09 0.07 0.06 0.06 0.06 0.06 0.06 0.05 0.04 0.04 0.04
0.00 0.00 0.00 0.00 0.00 0.01 0.02 0.02 0.02 0.02 0.03 0.05 0.06 0.07 0.09 0.11 0.10 0.10 0.11 0.11 0.10 0.10 0.10 0.13 0.11 0.10 0.09 0.09 0.09 0.09 0.10 0.10 0.09 0.08 0.06 0.07 0.06 0.07 0.08 0.06 0.05 0.04 0.04
0.00 0.00 0.00 0.00 0.00 0.00 0.01 0.01 0.01 0.02 0.03 0.05 0.06 0.06 0.08 0.10 0.10 0.09 0.09 0.10 0.10 0.11 0.11 0.11 0.10 0.08 0.07 0.08 0.08 0.09 0.09 0.10 0.09 0.07 0.05 0.05 0.06 0.07 0.08 0.06 0.04 0.04 0.05
0.00 0.00 0.00 0.00 0.00 0.00 0.00 0.01 0.01 0.02 0.03 0.05 0.06 0.06 0.07 0.08 0.09 0.09 0.09 0.10 0.11 0.12 0.11 0.11 0.10 0.07 0.05 0.06 0.08 0.09 0.08 0.10 0.10 0.09 0.06 0.05 0.06 0.07 0.08 0.06 0.05 0.06 0.06
0.00 0.00 0.00 0.00 0.00 0.00 0.00 0.00 0.01 0.02 0.04 0.06 0.06 0.05 0.05 0.05 0.08 0.10 0.11 0.11 0.11 0.11 0.11 0.12 0.11 0.07 0.05 0.05 0.06 0.07 0.08 0.08 0.08 0.09 0.11 0.09 0.08 0.08 0.08 0.07 0.07 0.07 0.05
0.00 0.00 0.00 0.00 0.00 0.00 0.00 0.00 0.01 0.03 0.04 0.05 0.05 0.05 0.05 0.04 0.06 0.09 0.12 0.12 0.10 0.09 0.09 0.10 0.11 0.07 0.05 0.04 0.05 0.06 0.06 0.07 0.08 0.09 0.10 0.12 0.11 0.11 0.11 0.11 0.09 0.07 0.05
0.00 0.00 0.00 0.00 0.00 0.00 0.00 0.00 0.02 0.03 0.04 0.04 0.04 0.06 0.06 0.07 0.07 0.08 0.10 0.10 0.08 0.08 0.07 0.07 0.08 0.06 0.04 0.04 0.05 0.05 0.04 0.05 0.08 0.10 0.09 0.09 0.11 0.12 0.11 0.10 0.09 0.07 0.06
0.01 0.01 0.00 0.00 0.00 0.00 0.00 0.00 0.02 0.03 0.04 0.04 0.05 0.07 0.09 0.09 0.09 0.09 0.09 0.09 0.08 0.07 0.06 0.06 0.05 0.04 0.04 0.04 0.04 0.04 0.05 0.05 0.07 0.09 0.09 0.09 0.10 0.10 0.09 0.08 0.08 0.07 0.06
MSLP
1012.44 1012.41 1012.30 1012.09 1011.81 1011.49 1011.15 1010.80 1010.44 1010.04 1009.59 1009.04 1008.38 1007.59 1006.71 1005.75 1004.78 1003.84 1002.98 1002.25 1001.66 1001.23 1000.97 1000.87 1000.94 1001.18 1001.59 1002.17 1002.92 1003.83 1004.86 1005.96 1007.09 1008.16 1009.13 1009.95 1010.60 1011.08 1011.41 1011.63 1011.78 1011.91 1012.05
1012.23 1012.25 1012.17 1011.98 1011.69 1011.35 1010.98 1010.61 1010.24 1009.87 1009.45 1008.96 1008.35 1007.62 1006.75 1005.78 1004.74 1003.70 1002.71 1001.81 1001.05 1000.45 1000.03 999.80 999.75 999.90 1000.24 1000.79 1001.52 1002.44 1003.50 1004.67 1005.87 1007.05 1008.13 1009.08 1009.86 1010.47 1010.90 1011.21 1011.44 1011.62 1011.80
1012.03 1012.10 1012.04 1011.85 1011.55 1011.17 1010.76 1010.36 1009.99 1009.63 1009.26 1008.83 1008.29 1007.63 1006.81 1005.84 1004.78 1003.66 1002.55 1001.50 1000.57 999.79 999.20 998.80 998.62 998.66 998.92 999.41 1000.12 1001.04 1002.13 1003.35 1004.63 1005.91 1007.11 1008.18 1009.08 1009.80 1010.34 1010.74 1011.03 1011.26 1011.47
1011.86 1011.96 1011.92 1011.73 1011.40 1010.97 1010.51 1010.07 1009.67 1009.32 1008.99 1008.62 1008.17 1007.58 1006.83 1005.91 1004.84 1003.67 1002.47 1001.29 1000.20 999.26 998.49 997.94 997.62 997.55 997.73 998.17 998.86 999.78 1000.89 1002.16 1003.50 1004.85 1006.14 1007.30 1008.30 1009.11 1009.74 1010.20 1010.55 1010.81 1011.03
1011.71 1011.83 1011.81 1011.60 1011.23 1010.75 1010.24 1009.74 1009.31 1008.96 1008.65 1008.34 1007.97 1007.47 1006.79 1005.92 1004.87 1003.68 1002.41 1001.14 999.92 998.84 997.93 997.25 996.81 996.65 996.76 997.16 997.82 998.74 999.87 1001.16 1002.54 1003.93 1005.26 1006.48 1007.53 1008.40 1009.07 1009.58 1009.96 1010.25 1010.48
1011.55 1011.69 1011.67 1011.45 1011.04 1010.52 1009.94 1009.39 1008.92 1008.55 1008.26 1007.99 1007.68 1007.25 1006.65 1005.84 1004.82 1003.64 1002.34 1001.00 999.69 998.50 997.49 996.71 996.19 995.96 996.03 996.40 997.05 997.97 999.10 1000.39 1001.77 1003.16 1004.49 1005.71 1006.76 1007.64 1008.33 1008.86 1009.26 1009.57 1009.83
1011.33 1011.48 1011.46 1011.23 1010.81 1010.24 1009.61 1009.01 1008.51 1008.11 1007.82 1007.58 1007.31 1006.94 1006.40 1005.65 1004.67 1003.50 1002.19 1000.82 999.47 998.21 997.13 996.29 995.72 995.46 995.51 995.86 996.51 997.42 998.53 999.80 1001.14 1002.50 1003.79 1004.96 1005.98 1006.84 1007.52 1008.05 1008.48 1008.82 1009.12
1010.99 1011.15 1011.14 1010.92 1010.48 1009.89 1009.24 1008.61 1008.07 1007.65 1007.35 1007.12 1006.88 1006.55 1006.05 1005.34 1004.40 1003.26 1001.96 1000.58 999.21 997.93 996.82 995.95 995.36 995.09 995.13 995.48 996.12 997.01 998.10 999.32 1000.60 1001.88 1003.10 1004.21 1005.17 1005.98 1006.65 1007.19 1007.65 1008.05 1008.41
1010.48 1010.66 1010.67 1010.45 1010.03 1009.45 1008.79 1008.15 1007.60 1007.17 1006.86 1006.63 1006.39 1006.08 1005.62 1004.94 1004.03 1002.92 1001.64 1000.27 998.91 997.63 996.51 995.64 995.05 994.78 994.82 995.16 995.79 996.65 997.69 998.86 1000.07 1001.27 1002.40 1003.43 1004.33 1005.10 1005.76 1006.32 1006.82 1007.29 1007.74
1009.79 1009.98 1010.01 1009.82 1009.43 1008.88 1008.25 1007.63 1007.09 1006.67 1006.36 1006.12 1005.89 1005.59 1005.13 1004.48 1003.60 1002.51 1001.26 999.93 998.58 997.31 996.21 995.34 994.76 994.48 994.51 994.84 995.44 996.26 997.25 998.35 999.48 1000.60 1001.66 1002.62 1003.48 1004.23 1004.89 1005.49 1006.05 1006.59 1007.14
1008.93 1009.13 1009.18 1009.04 1008.69 1008.19 1007.62 1007.05 1006.55 1006.15 1005.86 1005.62 1005.39 1005.09 1004.65 1004.01 1003.15 1002.10 1000.88 999.58 998.26 997.02 995.92 995.06 994.46 994.17 994.17 994.47 995.02 995.79 996.73 997.76 998.83 999.89 1000.89 1001.81 1002.65 1003.40 1004.08 1004.72 1005.35 1005.97 1006.60
1007.98 1008.18 1008.25 1008.13 1007.84 1007.41 1006.91 1006.42 1005.98 1005.63 1005.36 1005.15 1004.93 1004.63 1004.20 1003.57 1002.75 1001.72 1000.55 999.28 997.99 996.77 995.69 994.81 994.20 993.86 993.82 994.05 994.55 995.25 996.12 997.10 998.12 999.14 1000.11 1001.02 1001.86 1002.63 1003.34 1004.03 1004.71 1005.40 1006.10
1007.03 1007.21 1007.28 1007.19 1006.94 1006.59 1006.17 1005.76 1005.40 1005.12 1004.90 1004.71 1004.51 1004.22 1003.80 1003.20 1002.40 1001.42 1000.29 999.06 997.81 996.61 995.53 994.64 993.98 993.59 993.47 993.63 994.05 994.68 995.48 996.40 997.38 998.38 999.35 1000.26 1001.12 1001.92 1002.67 1003.39 1004.12 1004.84 1005.58
1006.16 1006.31 1006.35 1006.26 1006.06 1005.77 1005.44 1005.12 1004.85 1004.64 1004.47 1004.32 1004.14 1003.87 1003.47 1002.89 1002.13 1001.19 1000.11 998.94 997.73 996.55 995.47 994.56 993.85 993.38 993.18 993.24 993.56 994.10 994.83 995.69 996.64 997.62 998.60 999.53 1000.42 1001.24 1002.02 1002.77 1003.51 1004.24 1004.98
1005.44 1005.52 1005.51 1005.41 1005.23 1005.00 1004.75 1004.52 1004.33 1004.20 1004.09 1003.98 1003.82 1003.57 1003.18 1002.63 1001.91 1001.02 1000.00 998.89 997.73 996.58 995.51 994.57 993.81 993.27 992.97 992.92 993.12 993.56 994.21 995.01 995.92 996.88 997.86 998.81 999.72 1000.57 1001.36 1002.12 1002.85 1003.57 1004.28
1004.87 1004.86 1004.79 1004.66 1004.49 1004.30 1004.12 1003.98 1003.87 1003.80 1003.75 1003.66 1003.52 1003.28 1002.91 1002.39 1001.71 1000.88 999.92 998.87 997.77 996.67 995.62 994.66 993.86 993.23 992.83 992.67 992.76 993.08 993.63 994.35 995.21 996.14 997.11 998.07 998.99 999.86 1000.66 1001.42 1002.14 1002.83 1003.51
1004.41 1004.31 1004.16 1004.00 1003.83 1003.68 1003.56 1003.49 1003.46 1003.44 1003.42 1003.36 1003.23 1002.99 1002.63 1002.12 1001.48 1000.70 999.81 998.84 997.81 996.77 995.74 994.79 993.95 993.26 992.77 992.49 992.46 992.66 993.10 993.73 994.51 995.40 996.35 997.30 998.22 999.10 999.92 1000.68 1001.39 1002.07 1002.73
1003.97 1003.77 1003.57 1003.38 1003.22 1003.11 1003.05 1003.05 1003.07 1003.10 1003.10 1003.04 1002.90 1002.65 1002.28 1001.79 1001.18 1000.45 999.64 998.74 997.79 996.82 995.84 994.91 994.05 993.31 992.74 992.36 992.21 992.29 992.61 993.14 993.84 994.67 995.57 996.51 997.44 998.32 999.16 999.94 1000.67 1001.37 1002.04
1003.44 1003.18 1002.93 1002.74 1002.61 1002.55 1002.56 1002.62 1002.69 1002.75 1002.76 1002.69 1002.53 1002.26 1001.87 1001.38 1000.79 1000.12 999.37 998.56 997.69 996.79 995.88 994.98 994.12 993.35 992.72 992.25 991.99 991.96 992.16 992.58 993.19 993.95 994.82 995.74 996.67 997.58 998.46 999.28 1000.06 1000.81 1001.54
1002.75 1002.45 1002.21 1002.04 1001.97 1001.98 1002.06 1002.18 1002.30 1002.37 1002.38 1002.29 1002.10 1001.79 1001.39 1000.90 1000.33 999.70 999.02 998.28 997.51 996.69 995.84 994.98 994.14 993.36 992.68 992.14 991.79 991.65 991.75 992.07 992.60 993.30 994.13 995.04 995.99 996.94 997.88 998.78 999.65 1000.48 1001.29
1001.87 1001.58 1001.38 1001.28 1001.29 1001.38 1001.54 1001.71 1001.87 1001.95 1001.95 1001.84 1001.61 1001.28 1000.86 1000.37 999.82 999.24 998.62 997.96 997.26 996.52 995.73 994.92 994.10 993.31 992.60 992.01 991.59 991.37 991.38 991.62 992.08 992.73 993.54 994.46 995.44 996.46 997.48 998.48 999.45 1000.39 1001.31
1000.82 1000.59 1000.47 1000.47 1000.57 1000.76 1000.99 1001.22 1001.40 1001.49 1001.47 1001.34 1001.09 1000.74 1000.31 999.83 999.31 998.77 998.21 997.62 996.99 996.31 995.57 994.79 993.99 993.20 992.47 991.84 991.37 991.09 991.04 991.23 991.65 992.28 993.09 994.03 995.06 996.15 997.27 998.38 999.47 1000.53 1001.55
999.69 999.56 999.55 999.66 999.87 1000.14 1000.43 1000.70 1000.90 1000.99 1000.96 1000.81 1000.54 1000.19 999.78 999.32 998.84 998.35 997.84 997.31 996.72 996.08 995.38 994.62 993.83 993.03 992.28 991.62 991.12 990.81 990.73 990.89 991.30 991.93 992.76 993.74 994.84 996.01 997.22 998.44 999.63 1000.80 1001.92
998.59 998.58 998.70 998.92 999.22 999.56 999.89 1000.17 1000.37 1000.45 1000.41 1000.26 1000.00 999.67 999.29 998.88 998.45 998.01 997.55 997.05 996.49 995.87 995.17 994.40 993.59 992.77 992.00 991.33 990.80 990.48 990.40 990.57 990.99 991.66 992.53 993.57 994.73 995.98 997.28 998.58 999.87 1001.12 1002.31
997.65 997.77 998.00 998.31 998.67 999.04 999.38 999.65 999.83 999.90 999.85 999.70 999.47 999.19 998.86 998.51 998.14 997.74 997.32 996.83 996.28 995.64 994.91 994.10 993.26 992.41 991.61 990.92 990.40 990.08 990.02 990.23 990.70 991.41 992.34 993.44 994.68 996.00 997.36 998.73 1000.08 1001.38 1002.62
996.97 997.20 997.51 997.86 998.24 998.60 998.91 999.14 999.28 999.33 999.28 999.15 998.96 998.74 998.48 998.19 997.88 997.53 997.12 996.63 996.05 995.36 994.57 993.70 992.80 991.90 991.08 990.38 989.87 989.58 989.57 989.83 990.37 991.15 992.15 993.32 994.61 995.99 997.40 998.81 1000.19 1001.52 1002.78
Thickness
5567 5570 5574 5577 5582 5587 5591 5594 5597 5602 5605 5608 5610 5613 5616 5621 5624 5627 5630 5632 5635 5636 5638 5639 5640 5641 5643 5644 5645 5645 5644 5643 5642 5641 5639 5638 5640 5644 5646 5646 5646 5646 5645
5558 5562 5565 5568 5572 5577 5581 5586 5591 5594 5597 5599 5602 5604 5608 5612 5614 5617 5620 5622 5625 5627 5630 5632 5633 5634 5635 5636 5637 5639 5637 5636 5637 5637 5634 5632 5632 5637 5641 5641 5641 5641 5640
5546 5551 5556 5559 5563 5568 5572 5579 5583 5586 5588 5590 5591 5593 5596 5599 5601 5605 5609 5613 5616 5619 5622 5624 5626 5627 5629 5631 5632 5634 5633 5632 5630 5633 5634 5631 5631 5631 5633 5634 5635 5635 5634
5537 5541 5546 5550 5554 5560 5565 5569 5573 5578 5579 5581 5582 5584 5588 5591 5595 5597 5600 5603 5607 5610 5614 5616 5619 5620 5623 5625 5626 5628 5629 5629 5627 5626 5629 5632 5633 5630 5628 5628 5628 5628 5628
5529 5532 5537 5541 5546 5551 5555 5560 5564 5569 5570 5572 5574 5576 5579 5582 5585 5587 5590 5594 5598 5602 5606 5609 5612 5614 5617 5619 5621 5622 5624 5625 5626 5625 5624 5623 5623 5625 5625 5624 5622 5621 5623
5522 5526 5530 5533 5537 5541 5545 5548 5553 5558 5561 5564 5567 5569 5571 5574 5576 5578 5581 5585 5590 5594 5599 5601 5604 5608 5610 5613 5615 5616 5618 5620 5622 5622 5622 5623 5621 5620 5619 5618 5617 5616 5617
5513 5517 5522 5527 5531 5533 5537 5540 5544 5549 5552 5556 5559 5562 5565 5567 5570 5573 5576 5580 5584 5588 5593 5595 5598 5601 5605 5607 5609 5610 5613 5615 5617 5618 5619 5619 5619 5619 5617 5615 5611 5610 5610
5507 5511 5514 5519 5523 5526 5529 5532 5536 5540 5544 5548 5552 5555 5558 5560 5564 5567 5571 5575 5580 5584 5588 5589 5592 5596 5599 5601 5603 5605 5608 5609 5612 5614 5615 5615 5614 5614 5614 5612 5608 5605 5604
5501 5504 5508 5512 5517 5519 5521 5524 5528 5532 5536 5541 5545 5548 5551 5554 5559 5562 5566 5570 5575 5579 5583 5586 5588 5591 5594 5597 5599 5601 5604 5606 5608 5609 5610 5610 5609 5609 5609 5609 5608 5605 5602
5496 5497 5501 5505 5507 5511 5514 5517 5520 5524 5529 5533 5537 5541 5544 5548 5552 5556 5560 5565 5569 5573 5577 5581 5583 5587 5591 5593 5595 5598 5601 5602 5603 5604 5605 5605 5604 5605 5604 5604 5603 5602 5601
5486 5489 5492 5495 5498 5502 5505 5509 5513 5516 5520 5524 5527 5532 5536 5541 5545 5549 5554 5560 5564 5567 5571 5575 5579 5584 5588 5590 5592 5595 5597 5598 5599 5600 5600 5600 5599 5599 5599 5599 5597 5595 5594
5479 5481 5483 5486 5489 5493 5497 5501 5505 5508 5512 5516 5519 5524 5529 5533 5537 5543 5549 5554 5558 5562 5566 5569 5575 5580 5585 5587 5589 5592 5594 5594 5595 5597 5595 5595 5594 5594 5594 5593 5591 5590 5589
5474 5475 5476 5478 5481 5485 5489 5493 5497 5500 5504 5507 5511 5516 5521 5526 5531 5537 5543 5548 5553 5557 5560 5565 5570 5575 5580 5583 5586 5588 5590 5590 5592 5592 5591 5591 5590 5590 5589 5588 5587 5585 5583
5466 5468 5469 5471 5474 5477 5481 5485 5489 5492 5496 5499 5504 5509 5514 5519 5525 5531 5538 5543 5547 5552 5556 5561 5566 5570 5574 5578 5581 5583 5584 5584 5586 5586 5587 5587 5587 5587 5585 5584 5582 5579 5576
5460 5462 5463 5464 5466 5469 5472 5477 5481 5484 5488 5491 5495 5500 5506 5512 5518 5524 5531 5536 5541 5546 5550 5555 5560 5565 5568 5572 5575 5577 5578 5579 5580 5580 5581 5582 5583 5583 5582 5580 5577 5574 5571
5456 5457 5458 5460 5461 5462 5465 5469 5474 5476 5479 5482 5487 5492 5497 5503 5510 5516 5522 5528 5533 5539 5544 5548 5553 5558 5563 5567 5569 5571 5572 5573 5575 5576 5576 5576 5576 5575 5575 5574 5572 5570 5567
5448 5450 5451 5452 5453 5455 5457 5460 5465 5467 5470 5474 5478 5484 5489 5495 5502 5508 5514 5520 5525 5531 5536 5540 5545 5551 5556 5559 5562 5564 5566 5568 5570 5570 5570 5569 5570 5569 5568 5567 5564 5562 5561
5441 5441 5442 5444 5445 5447 5450 5453 5456 5459 5461 5465 5469 5474 5480 5486 5492 5498 5505 5511 5517 5523 5528 5533 5539 5544 5549 5552 5555 5557 5559 5562 5563 5564 5564 5565 5564 5563 5561 5559 5556 5554 5553
5433 5433 5434 5435 5437 5440 5442 5444 5447 5450 5453 5456 5460 5465 5471 5477 5483 5489 5496 5502 5508 5515 5520 5526 5532 5537 5542 5545 5547 5549 5552 5554 5555 5556 5557 5558 5558 5557 5555 5553 5550 5547 5544
5426 5426 5426 5426 5428 5431 5433 5436 5438 5441 5444 5448 5452 5457 5462 5468 5475 5481 5487 5494 5501 5507 5513 5519 5524 5530 5534 5537 5540 5542 5545 5547 5548 5548 5549 5551 5553 5552 5550 5548 5546 5542 5537
5419 5419 5418 5418 5420 5422 5424 5427 5430 5432 5436 5439 5444 5448 5454 5459 5466 5472 5478 5485 5492 5498 5505 5511 5516 5522 5527 5530 5532 5535 5538 5540 5541 5543 5544 5546 5547 5546 5544 5542 5541 5538 5531
5413 5412 5411 5412 5413 5414 5416 5419 5422 5426 5429 5432 5436 5440 5445 5452 5459 5464 5470 5476 5483 5490 5496 5502 5508 5514 5518 5522 5524 5527 5531 5533 5535 5536 5538 5539 5539 5539 5537 5535 5533 5528 5523
5404 5405 5404 5406 5407 5407 5409 5411 5416 5418 5421 5424 5427 5432 5438 5444 5450 5455 5461 5467 5474 5481 5487 5493 5500 5505 5509 5513 5516 5519 5522 5524 5526 5529 5530 5531 5531 5530 5529 5527 5524 5519 5515
5397 5398 5398 5399 5401 5402 5403 5406 5409 5411 5413 5416 5420 5425 5431 5437 5442 5447 5452 5458 5465 5472 5478 5485 5491 5496 5500 5504 5506 5509 5512 5514 5517 5518 5519 5521 5522 5521 5520 5517 5514 5511 5508
5391 5391 5391 5393 5395 5396 5397 5400 5402 5404 5406 5409 5413 5417 5423 5429 5434 5439 5444 5450 5457 5463 5469 5475 5482 5488 5492 5496 5499 5501 5503 5506 5508 5509 5510 5510 5512 5511 5509 5506 5504 5501 5498
5384 5384 5385 5387 5388 5390 5391 5394 5396 5398 5400 5403 5406 5410 5414 5419 5425 5432 5437 5443 5449 5455 5461 5467 5473 5479 5484 5487 5491 5493 5495 5497 5499 5501 5502 5503 5504 5503 5501 5498 5494 5491 5488